Flag for Canada Weather past 2 weeks in Nelson, British Columbia, Canada

Now
53 °F

Cool.


Feels Like: 53 °F
Forecast: 42 / 49 °F
Wind: 1 mph from Southwest

Location: Nelson

Current Time: May 26, 2015 at 3:11:38 AM

Latest Report: May 26, 2015 at 2:00 AM


Visibility: N/A

Pressure: 29.93 "Hg

Humidity: 94%

Dew point: 51 °F

Location of NelsonLocation

Historic Weather in Nelson — Graph

°F

Nelson temperature yesterday

Maximum temperature yesterday: 71 °F (at 1:00 PM)
Minimum temperature yesterday: 53 °F (at 2:00 AM)
Average temperature yesterday: 58 °F

Past Weeks' High & Low Weather Summary

 TemperatureHumidityPressure
High90 °F (May 22, 6:00 PM)95% (May 25, 3:00 AM)30.19 "Hg (May 25, 3:00 AM)
Low42 °F (May 15, 6:00 AM)11% (May 22, 6:00 PM)29.61 "Hg (May 15, 6:00 PM)
Average61 °F51%29.91 "Hg
* Reported May 11 2:00 AM — May 26 2:00 AM, Nelson, Weather by CustomWeather, © 2015

Note: Actual official high and low records may vary slightly from our data, if they occured in-between our weather recording intervals... More about our weather records

Advertising

Nelson weather history for previous 24 hours

 ConditionsComfort  
Time TempWeatherWind HumidityBarometerVisibility
2:00 AM
Tue, May 26
53 °FCool.1 mph94%29.93 "HgN/A
1:00 AM53 °FCool.3 mph94%29.91 "HgN/A
12:00 AM54 °FCool.3 mph94%29.92 "HgN/A
11:00 PM
Mon, May 25
54 °FCool.3 mph90%29.92 "HgN/A
10:00 PM55 °FCool.3 mph86%29.91 "HgN/A
9:00 PM55 °FCool.2 mph79%29.90 "HgN/A
8:00 PM58 °FCool.1 mph76%29.88 "HgN/A
7:00 PM59 °FCool.3 mph69%29.88 "HgN/A
6:00 PM58 °FCool.12 mph73%29.89 "HgN/A
5:00 PM60 °FRefreshingly cool.14 mph59%29.88 "HgN/A
4:00 PM65 °FMild.12 mph57%29.85 "HgN/A
3:00 PM69 °FMild.10 mph46%29.84 "HgN/A
2:00 PM69 °FMild.8 mph50%29.85 "HgN/A
1:00 PM71 °FMild.9 mph54%29.86 "HgN/A
12:00 PM62 °FCool.9 mph64%29.88 "HgN/A
11:00 AM60 °FCool.8 mph75%29.90 "HgN/A
10:00 AM59 °FCool.3 mph78%29.91 "HgN/A
9:00 AM58 °FCool.2 mph81%29.91 "HgN/A
8:00 AM56 °FCool.1 mph85%29.90 "HgN/A
7:00 AM55 °FCool.3 mph87%29.90 "HgN/A
6:00 AM54 °FCool.2 mph90%29.89 "HgN/A
5:00 AM55 °FCool.2 mph87%29.89 "HgN/A
4:00 AM55 °FCool.2 mph88%29.88 "HgN/A
3:00 AM54 °FCool.3 mph95%29.88 "HgN/A
Weather by CustomWeather, © 2015

See weather overviewHow to use our weather pages